Terminal Aerodrome Forecast
Issued by NWS

Home | Current Version | Previous Version | Text Only | Print | Product List | Glossary On
Versions: 1 2 3 4 5 6 7 8 9 10 11 12 13 14 15 16 17 18 19 20 21 22 23 24 25 26 27 28
000
FTUS41 KBOX 240542
TAFBAF
TAF
KBAF 240542Z 2406/2506 VRB03KT P6SM VCSH SCT025 BKN120
     FM240800 36006KT 6SM BR BKN025 BKN150
     FM241200 01008KT P6SM BKN050
     FM241600 01008KT P6SM SCT050
     FM241800 01007KT P6SM SCT250
     FM250500 VRB03KT P6SM FEW250=

USA.gov is the U.S. government's official web portal to all federal, state and local government web resources and services.